[[{"header":{"parameterUnit":"m.s-1","parameterCategory":1,"la1":30.2991,"la2":30.254,"lo1":-89.0895,"lo2":-89.0444,"dy":0.0017,"dx":0.0017,"nx":28,"ny":28,"refTime":"2025-08-30T09:00:00:Z","depth":0,"parameterNumber":2,"parameterNumberName":"U-component_of_WINDS"},"data":[0,0,0,0,0,0,0,0,0,0,0,0,0,0,0,0,0,0,0,0,0,0,0,0,0,0,0,0,0,0,0,0,0,0,0,0,0,0,0,0,0,0,0,0,0,0,0,0,0,0,0,0,0,0,0,0,0,0,0.654,0.654,0,0.6528,0.6527,0.6527,0.6503,0.6502,0.6502,0.6501,0.649,0.649,0.6491,0,0,0,0,0,0,0,0,0,0,0,0,0,0.6546,0.6546,0.654,0.654,0.654,0.6528,0.6527,0.6527,0.6503,0.6502,0.6502,0.6501,0.649,0.649,0.6491,0,0,0,0,0,0,0,0,0,0,0,0,0,0.6539,0.6546,0.654,0.6526,0.6525,0.6528,0.6527,0.6527,0.6503,0.6502,0.6502,0.6501,0.649,0.649,0.6491,0.6506,0,0,0.6491,0.6491,0,0,0,0,0,0,0,0,0.654,0.6539,0.6528,0.6527,0.6526,0.6516,0.6525,0.652,0.6503,0.6511,0.6501,0.6501,0.6499,0.6499,0.6498,0.6506,0.6505,0.6491,0.6491,0.6491,0.6492,0,0,0,0,0,0,0,0.654,0.6539,0.6535,0.6528,0.6527,0.6521,0.652,0.6524,0.651,0.6511,0.6509,0.6508,0.6499,0.6498,0.6498,0.6505,0.6491,0.6491,0.6492,0.6492,0.6527,0.6528,0,0,0,0,0,0,0.6542,0.654,0.6536,0.6535,0.6531,0.6522,0.652,0.652,0.651,0.6507,0.6508,0.6507,0.6498,0.6498,0.6497,0.6515,0.6491,0.6492,0.6492,0.6526,0.6527,0.6528,0,0,0,0,0,0,0.6542,0.6542,0.6536,0.6537,0.6536,0.6523,0.6523,0.652,0.6519,0.6508,0.6505,0.651,0.6497,0.6497,0.6505,0.6515,0.6492,0.6492,0.6525,0.6527,0.6528,0.6552,0,0,0,0,0,0,0.6543,0.6542,0.6547,0.6537,0.6536,0.6543,0.6523,0.652,0.652,0.6517,0.6509,0.6507,0.6497,0.6504,0.6505,0.6515,0.6492,0.6524,0.6526,0.6527,0.655,0.6554,0.6557,0,0,0,0,0,0.6543,0.6554,0.6548,0.6547,0.6542,0.6543,0.6542,0.653,0.652,0.6526,0.6519,0.6507,0.6514,0.6505,0.6506,0.6516,0.6524,0.6526,0.6527,0.6548,0.6553,0.6557,0,0,0,0,0,0,0.6566,0.6553,0.6545,0.6553,0.655,0.6539,0.6545,0.6535,0.6534,0.6532,0.6518,0.6516,0.6526,0.6522,0.6512,0.6531,0.6517,0.6519,0.6533,0.6537,0.6541,0.6541,0.6492,0,0,0,0,0,0.6572,0.6574,0.6563,0.6571,0.657,0.6558,0.6558,0.655,0.6545,0.6543,0.6537,0.6534,0.6535,0.6536,0.6537,0.655,0.6548,0.6558,0.6561,0.6564,0.6565,0.6573,0.6577,0.6534,0.6534,0.6534,0,0,0.6584,0.6578,0.6579,0.6576,0.6572,0.6574,0.6557,0.656,0.6562,0.6544,0.655,0.6546,0.6542,0.6552,0.6557,0.6549,0.6577,0.6566,0.6569,0.6568,0.6575,0.6579,0.6583,0.6535,0.6535,0.6535,0,0,0.6608,0.6603,0.661,0.6607,0.6601,0.6594,0.6596,0.6587,0.6583,0.659,0.6576,0.658,0.6583,0.658,0.6579,0.6606,0.6595,0.6607,0.6623,0.6631,0.6634,0.6637,0.6646,0.665,0.6608,0.6608,0.6608,0,0.6624,0.6626,0.6615,0.6619,0.6618,0.6603,0.661,0.6608,0.6603,0.6604,0.6596,0.66,0.6596,0.6606,0.6613,0.6613,0.6615,0.6606,0.6635,0.6638,0.664,0.6648,0.6652,0.661,0.661,0.661,0.6609,0,0.6647,0.6649,0.6656,0.6651,0.6652,0.6658,0.6648,0.665,0.6642,0.6636,0.6644,0.6639,0.6639,0.6641,0.6634,0.6651,0.6647,0.6637,0.6622,0.6646,0.6653,0.6657,0.6612,0.6611,0.6611,0.6611,0,0,0.6681,0.6672,0.6674,0.6673,0.6667,0.6669,0.6676,0.6676,0.6678,0.6676,0.6681,0.6685,0.6677,0.6676,0.6669,0.6676,0.6697,0.6665,0.6665,0.6671,0.6716,0.6722,0.6726,0.6691,0.6691,0.6692,0.6716,0,0.6702,0.6711,0.6702,0.6713,0.6716,0.6703,0.6709,0.6707,0.6702,0.6705,0.67,0.6703,0.6692,0.6692,0.6698,0.6693,0.6706,0.6691,0.6695,0.6696,0.6695,0.673,0.6736,0.6759,0.6719,0.672,0.672,0,0.6727,0.6727,0.6738,0.6733,0.6734,0.6739,0.6739,0.6742,0.674,0.6736,0.6737,0.6728,0.6736,0.6723,0.6733,0.6724,0.6725,0.6724,0.6724,0.6723,0.6708,0.6728,0.6766,0.6769,0.6725,0.6724,0.6724,0,0.675,0.6753,0.676,0.676,0.6754,0.6758,0.6756,0.6754,0.6755,0.6756,0.6756,0.6758,0.6759,0.6761,0.6754,0.6746,0.6766,0.6752,0.6763,0.6763,0.6766,0.6765,0.6803,0.677,0.677,0.677,0.677,0,0.6774,0.6781,0.6771,0.6775,0.6784,0.6774,0.6784,0.6781,0.6779,0.6783,0.6773,0.6778,0.6769,0.6773,0.6768,0.6777,0.6778,0.6776,0.6774,0.6775,0.6776,0.6775,0.6773,0.677,0.677,0.677,0.677,0,0.68,0.6793,0.68,0.6795,0.6794,0.6801,0.6797,0.6801,0.6797,0.6803,0.6804,0.6798,0.6803,0.6796,0.68,0.6797,0.681,0.6806,0.681,0.6808,0.6819,0.6818,0.6857,0.6861,0.6826,0.6827,0.6827,0,0.6814,0.682,0.6816,0.6818,0.6816,0.682,0.6821,0.6814,0.6816,0.6815,0.682,0.6824,0.6826,0.6835,0.6831,0.6835,0.6831,0.6844,0.6831,0.6833,0.683,0.6829,0.683,0.6846,0.6846,0.6847,0.6847,0,0.684,0.6837,0.6839,0.6841,0.6843,0.6844,0.6844,0.6847,0.6839,0.6843,0.6847,0.6849,0.6854,0.6858,0.6861,0.686,0.6852,0.6852,0.6854,0.6855,0.6856,0.6855,0.6816,0.685,0.685,0.685,0.6849,0.6849,0.686,0.6865,0.6863,0.6866,0.6866,0.6867,0.6871,0.6869,0.6872,0.6875,0.6871,0.6877,0.6877,0.688,0.6881,0.6886,0.688,0.6884,0.6885,0.6885,0.6887,0.6857,0.6887,0.6887,0.6887,0.6886,0.6886,0,0.6885,0.6884,0.6887,0.6888,0.6891,0.6885,0.6886,0.6889,0.6894,0.6895,0.6898,0.6904,0.6909,0.6906,0.6911,0.6916,0.6912,0.6917,0.6916,0.6916,0.6892,0.6889,0.6919,0.6919,0.6919,0.6919,0.6919,0.6919,0.6898,0.6906,0.6903,0.6912,0.6911,0.6916,0.6917,0.6919,0.6919,0.6926,0.693,0.6929,0.6929,0.6934,0.6938,0.6938,0.6939,0.6945,0.6943,0.692,0.6917,0.6914,0.6911,0.6946,0.6946,0.6966,0.6966,0.6967]},{"header":{"parameterUnit":"m.s-1","parameterCategory":1,"la1":30.2991,"la2":30.254,"lo1":-89.0895,"lo2":-89.0444,"dy":0.0017,"dx":0.0017,"nx":28,"ny":28,"refTime":"2025-08-30T09:00:00:Z","depth":0,"parameterNumber":3,"parameterNumberName":"V-component_of_WINDS"},"data":[0,0,0,0,0,0,0,0,0,0,0,0,0,0,0,0,0,0,0,0,0,0,0,0,0,0,0,0,0,0,0,0,0,0,0,0,0,0,0,0,0,0,0,0,0,0,0,0,0,0,0,0,0,0,0,0,0,0,-3.017,-3.017,0,-3.0234,-3.0235,-3.0236,-3.026,-3.0259,-3.0259,-3.0259,-3.032,-3.0322,-3.0324,0,0,0,0,0,0,0,0,0,0,0,0,0,-3.0064,-3.0065,-3.017,-3.017,-3.0171,-3.0234,-3.0235,-3.0236,-3.026,-3.0259,-3.0259,-3.0259,-3.032,-3.0322,-3.0324,0,0,0,0,0,0,0,0,0,0,0,0,0,-3.0117,-3.0066,-3.0169,-3.0191,-3.0193,-3.0234,-3.0235,-3.0236,-3.026,-3.0259,-3.0259,-3.0259,-3.0319,-3.0322,-3.0325,-3.0347,0,0,-3.0333,-3.0334,0,0,0,0,0,0,0,0,-3.0114,-3.0121,-3.0187,-3.0189,-3.0192,-3.0239,-3.022,-3.0273,-3.026,-3.0234,-3.0259,-3.0259,-3.0293,-3.0298,-3.0311,-3.035,-3.0353,-3.0333,-3.0335,-3.0336,-3.0337,0,0,0,0,0,0,0,-3.011,-3.0118,-3.0195,-3.0188,-3.0191,-3.0196,-3.0203,-3.023,-3.0264,-3.0236,-3.0238,-3.0246,-3.0295,-3.0308,-3.0312,-3.0354,-3.0333,-3.0335,-3.0337,-3.0338,-3.0418,-3.0418,0,0,0,0,0,0,-3.0103,-3.0115,-3.0193,-3.0197,-3.0152,-3.0198,-3.0206,-3.0224,-3.0264,-3.027,-3.0246,-3.0247,-3.0303,-3.0309,-3.0315,-3.0346,-3.0336,-3.0339,-3.034,-3.0417,-3.0418,-3.0418,0,0,0,0,0,0,-3.0101,-3.011,-3.019,-3.0157,-3.0167,-3.02,-3.022,-3.0225,-3.0239,-3.0272,-3.0277,-3.0254,-3.0303,-3.0311,-3.034,-3.0348,-3.034,-3.0342,-3.0417,-3.0417,-3.0418,-3.0407,0,0,0,0,0,0,-3.0098,-3.0109,-3.0119,-3.0157,-3.0169,-3.0216,-3.0221,-3.0227,-3.0244,-3.0246,-3.028,-3.0286,-3.0304,-3.0336,-3.0343,-3.0352,-3.0344,-3.0416,-3.0417,-3.0418,-3.0407,-3.0408,-3.0408,0,0,0,0,0,-3.0094,-3.0112,-3.0119,-3.0128,-3.0182,-3.0216,-3.0223,-3.0245,-3.0245,-3.0255,-3.0276,-3.0285,-3.0346,-3.0339,-3.0346,-3.0357,-3.0416,-3.0417,-3.0418,-3.0407,-3.0407,-3.0408,0,0,0,0,0,0,-3.0072,-3.0117,-3.0126,-3.0156,-3.0183,-3.022,-3.0233,-3.0244,-3.0269,-3.027,-3.0294,-3.0302,-3.0329,-3.0345,-3.0336,-3.0382,-3.0381,-3.0384,-3.037,-3.0371,-3.0372,-3.0367,-3.0347,0,0,0,0,0,-3.0071,-3.0096,-3.0133,-3.0157,-3.017,-3.0199,-3.0215,-3.0229,-3.0257,-3.0267,-3.0291,-3.0316,-3.0341,-3.0357,-3.0381,-3.0409,-3.0418,-3.042,-3.0421,-3.0421,-3.0423,-3.0441,-3.0443,-3.0422,-3.0422,-3.0422,0,0,-3.0068,-3.0096,-3.011,-3.0153,-3.0175,-3.02,-3.0208,-3.0233,-3.0252,-3.0271,-3.0301,-3.0319,-3.0348,-3.0378,-3.0392,-3.0392,-3.0431,-3.0422,-3.0422,-3.0424,-3.0442,-3.0444,-3.0446,-3.0422,-3.0422,-3.0422,0,0,-3.0076,-3.01,-3.0123,-3.0146,-3.018,-3.02,-3.0205,-3.0242,-3.0255,-3.0286,-3.0301,-3.0323,-3.0365,-3.0386,-3.0403,-3.0422,-3.0431,-3.0429,-3.0431,-3.0448,-3.045,-3.0452,-3.046,-3.0462,-3.0431,-3.0431,-3.0431,0,-3.0068,-3.0108,-3.0133,-3.0159,-3.0178,-3.0198,-3.0222,-3.0242,-3.0281,-3.0293,-3.0294,-3.0349,-3.037,-3.0406,-3.0411,-3.0423,-3.043,-3.0425,-3.0448,-3.045,-3.0452,-3.046,-3.0463,-3.043,-3.043,-3.043,-3.043,0,-3.0098,-3.0125,-3.0139,-3.018,-3.02,-3.0225,-3.0253,-3.027,-3.0283,-3.0303,-3.0335,-3.0361,-3.0393,-3.0402,-3.0414,-3.044,-3.0439,-3.0443,-3.0444,-3.0453,-3.0461,-3.0464,-3.043,-3.043,-3.043,-3.043,0,0,-3.0092,-3.0149,-3.0154,-3.0173,-3.0213,-3.0235,-3.026,-3.0293,-3.0308,-3.0335,-3.0357,-3.0394,-3.0399,-3.0417,-3.0432,-3.0447,-3.0462,-3.0449,-3.0451,-3.0452,-3.0494,-3.0492,-3.0495,-3.0469,-3.0469,-3.047,-3.0492,0,-3.0107,-3.0156,-3.018,-3.0218,-3.0244,-3.0265,-3.0287,-3.0314,-3.0333,-3.0357,-3.0378,-3.0404,-3.0408,-3.042,-3.0435,-3.0457,-3.0471,-3.0456,-3.049,-3.0491,-3.0483,-3.0499,-3.0496,-3.0516,-3.0495,-3.0496,-3.0496,0,-3.0131,-3.0161,-3.0202,-3.0242,-3.0253,-3.0273,-3.0307,-3.033,-3.036,-3.0374,-3.0396,-3.041,-3.0438,-3.0436,-3.0474,-3.0463,-3.0478,-3.0491,-3.0493,-3.0497,-3.0495,-3.0505,-3.0522,-3.0525,-3.0501,-3.0501,-3.05,0,-3.0125,-3.0175,-3.0207,-3.0223,-3.0269,-3.0283,-3.0303,-3.0334,-3.0353,-3.0381,-3.0394,-3.0424,-3.0441,-3.0464,-3.0487,-3.0483,-3.0523,-3.0522,-3.0535,-3.0534,-3.0543,-3.0542,-3.0564,-3.0551,-3.0551,-3.0551,-3.0551,0,-3.0139,-3.0164,-3.0206,-3.0225,-3.0254,-3.0281,-3.0308,-3.0329,-3.0357,-3.0381,-3.0399,-3.042,-3.0449,-3.0474,-3.0491,-3.0521,-3.0528,-3.0539,-3.0544,-3.0539,-3.0537,-3.055,-3.0549,-3.0551,-3.0551,-3.0551,-3.0551,0,-3.0138,-3.0166,-3.0203,-3.0245,-3.0256,-3.0276,-3.0311,-3.0331,-3.0352,-3.0382,-3.039,-3.0423,-3.0453,-3.0479,-3.0517,-3.0529,-3.0561,-3.0566,-3.0552,-3.0554,-3.0566,-3.0565,-3.0597,-3.0603,-3.0585,-3.0585,-3.0585,0,-3.0145,-3.0166,-3.0211,-3.023,-3.025,-3.0279,-3.0299,-3.0327,-3.0347,-3.0385,-3.04,-3.0433,-3.0461,-3.0509,-3.0535,-3.0565,-3.0571,-3.0581,-3.0576,-3.0571,-3.0573,-3.0573,-3.0575,-3.0581,-3.0581,-3.0581,-3.0581,0,-3.0157,-3.0171,-3.0201,-3.0236,-3.0261,-3.029,-3.0318,-3.0332,-3.0365,-3.0387,-3.042,-3.0441,-3.0483,-3.0516,-3.055,-3.0568,-3.0581,-3.0583,-3.0588,-3.0583,-3.0574,-3.0581,-3.0554,-3.0582,-3.0582,-3.0582,-3.0582,-3.0582,-3.0161,-3.0181,-3.0217,-3.025,-3.0276,-3.0303,-3.0325,-3.035,-3.0378,-3.0416,-3.043,-3.0464,-3.0496,-3.0543,-3.0563,-3.0589,-3.059,-3.0597,-3.0599,-3.06,-3.0601,-3.057,-3.0595,-3.0595,-3.0595,-3.0595,-3.0595,0,-3.0175,-3.02,-3.023,-3.0272,-3.0298,-3.031,-3.0343,-3.0364,-3.0394,-3.0424,-3.0452,-3.049,-3.0522,-3.0552,-3.0586,-3.0601,-3.0608,-3.0609,-3.0609,-3.0613,-3.0597,-3.059,-3.0604,-3.0604,-3.0604,-3.0604,-3.0604,-3.0604,-3.0185,-3.022,-3.0239,-3.0287,-3.0311,-3.0347,-3.0365,-3.039,-3.0415,-3.0458,-3.0486,-3.0506,-3.0536,-3.0572,-3.0602,-3.061,-3.0621,-3.0622,-3.0631,-3.0615,-3.0614,-3.0613,-3.0607,-3.0624,-3.0624,-3.0646,-3.0646,-3.0646]}]]